Location: Newark
(42.8481°N, 0.4872°E)
Time: 03:11:45
(UTC+00:00)

Transit 2A Rocket - Pass Details

Date: 02 November 2020
Orbit: 588 x 914 km, 66.7° (Epoch: 26 November)

Event Time Altitude Azimuth Distance (km) Brightness Sun altitude
Rises 10:39:53 0° 272° (W) 3,532 8.3 30.5°
Reaches altitude 10° 10:43:57 10° 298° (WNW) 2,560 7.4 30.7°
Maximum altitude 10:46:46 13° 326° (NNW) 2,285 7.1 30.8°
Drops below altitude 10° 10:49:33 10° 355° (N) 2,490 7.2 31.0°
Sets 10:53:24 0° 22° (NNE) 3,358 7.9 31.1°
